Location: Newark
(39.0622°N, 106.5590°E)
Time: 21:09:17
(UTC+00:00)

UWE-3 - Pass Details

Date: 24 February 2020
Orbit: 585 x 683 km, 97.6° (Epoch: 05 April)

Event Time Altitude Azimuth Distance (km) Brightness Sun altitude
Rises 22:31:31 0° 9° (N) 3,044 ? -12.8°
Reaches altitude 10° 22:33:46 10° 8° (N) 2,130 ? -12.3°
Maximum altitude 22:38:25 72° 285° (WNW) 719 ? -11.4°
Drops below altitude 10° 22:43:03 10° 201° (SSW) 2,113 ? -10.5°
Sets 22:45:16 0° 199° (SSW) 3,018 ? -10.1°
